DELTA 1 DEB, 10177

Orbit data source: Space-Track

DELTA 1 DEB, 10177 is space debris in LEO originally from a launch on Thu, 14 Jul 1977 UTC launched from the Air Force Eastern Test Range (AFETR). Debris objects in space refer to the collection of defunct objects orbiting the Earth. Examples of debris include non-operational satellites, rocket bodies, and fragments generated from explosions, collisions, or faulty payload assembly.

Loading next visibility...
Identifier
10177, 1977-065F
Orbit
LEO
Country
Flag of USUS
Related business
Manufacturer
Unknown
Mission
Spacecraft
Bus & Motor
Unknown
Mass
Unknown
Launch date (UTC)
1977-07-14 (49 years ago)
Launch vehicle
Unknown
Launch site
Air Force Eastern Test Range (AFETR)
Object type
Payload
Rocket body
Debris
Shape & HBR
Unknown shape, 0.1 m
Radar Cross Section
Small (<0.1 m²)

Expand to show TLE details & history
Last TLE update: 20 hours ago

TLE from 20 hours ago
0 DELTA 1 DEB
1 10177U 77065F   26132.81122205  .00004680  00000-0  68248-3 0  9995
2 10177  28.2317 324.5346 0469491 166.6345 194.7140 14.19332793292014
Epoch: 2026-05-12T19:28Z
TLE epoch observation values (Epoch: 2026-05-12T19:28:09.585Z)
Latitude
0.00002°
Longitude
161.91446°
Altitude
1,153.999 km
Speed
7.111 km/s
True Right ascension
21h 38m 08s
True Declination
0° 00' 00"
Sunlit
Object was in daylight at epoch
Visualization orbit readout
Latitude
Unknown
Longitude
Unknown
Altitude
Unknown
Speed
Unknown
Apparent Right ascension
Unknown
Apparent Declination
Unknown
Sunlit
N/A
Visualization observer readout
Local Sidereal Time
23:32:31
Azimuth
Unknown
Elevation
Unknown
Doppler factor
Unknown
Orbital elements
Apogee altitude
1,170.185 km
Perigee altitude
493.195 km
Semi-major axis
7,209.827 km
Eccentricity
0.04695
Inclination
28.2317°
RAAN
324.5346°
Arg. of periapsis
166.6345°
True anomaly
193.42117°
Mean anomaly
194.714°
Eccentric anomaly
194.06048°
Mean motion
3.54532 °/min
Orbital period
101.54 mins
BSTAR
0.00068248
Loading maneuver chart data...
Computing Atmospheric mass density...
Loading historical data...
Loading historical data...
Loading historical data...
Loading historical data...
Loading historical data...
Loading historical data...
Loading historical data...

Documentation

Showing up to 5 results
|